OBJECT AD, 59125

Orbit data source: Space-Track

You're viewing an Uncataloged Satellite

Recently launched and/or uncataloged satellites may have evolving metadata. Metadata may include but not limited to: Owner, Maufacturer, Bus, Motor, and Mission.

OBJECT AD, 59125 is a satellite in SSO that was launched on Mon, 04 Mar 2024 UTC via an FALCON 9 launch vehicle from the Air Force Western Test Range (AFWTR). Unknown objects in Earth's orbit typically refer to objects detected orbiting the Earth but have not yet been identified or cataloged. These objects could be anything from previously untracked satellites, spent rocket stages, debris from satellite collisions, or even natural meteoroids temporarily captured by Earth's gravity.

Loading next visibility...
Identifier
59125, 2024-043AD
Orbit
SSO
Country
Flag of TBDTBD
Related business
None
Manufacturer
Unknown
Mission
Operational Commercial Technology
Bus & Motor
Unknown
Mass
Unknown
Launch date (UTC)
2024-03-04 (2 years ago)
Launch vehicle
FALCON 9
Launch site
Air Force Western Test Range (AFWTR)
Object type
Unknown
Shape & HBR
Cyl + 1 Pan, 0.8 m
Radar Cross Section
2.062 m², Medium (>0.1 m² and < 1m²)

Expand to show TLE details & history
Last TLE update: 2 days ago

TLE from 2 days ago
0 OBJECT AD
1 59125U 24043AD  25310.32984985  .00015630  00000-0  52594-3 0  9997
2 59125  97.5370  81.5033 0009365 308.7716  51.2688 15.30839153 93101
Epoch: 2025-11-06T07:54Z
TLE epoch observation values (Epoch: 2025-11-06T07:54:59.027Z)
Latitude
0.00008°
Longitude
-83.03238°
Altitude
472.397 km
Speed
7.632 km/s
True Right ascension
05h 26m 00s
True Declination
0° 00' 00"
Sunlit
Object was in full shadow at epoch
Visualization orbit readout
Latitude
Unknown
Longitude
Unknown
Altitude
Unknown
Speed
Unknown
Apparent Right ascension
Unknown
Apparent Declination
Unknown
Sunlit
N/A
Visualization observer readout
Local Sidereal Time
17:57:13
Azimuth
Unknown
Elevation
Unknown
Doppler factor
Unknown
Orbital elements
Apogee altitude
476.678 km
Perigee altitude
463.851 km
Semi-major axis
6,848.401 km
Eccentricity
0.00094
Inclination
97.537°
RAAN
81.5033°
Arg. of periapsis
308.7716°
True anomaly
51.35258°
Mean anomaly
51.2688°
Eccentric anomaly
51.31068°
Mean motion
3.82965 °/min
Orbital period
94 mins
BSTAR
0.00052594
Loading maneuver chart data...
Computing Atmospheric mass density...
Loading historical data...
Loading historical data...
Loading historical data...
Loading historical data...
Loading historical data...
Loading historical data...
Loading historical data...

Documentation

Showing up to 5 results
|